K5TCS Weather Reports


Display with metric or nautical units.
time (UTC)temp
F
wind
direction
speed
MPH
gust
MPH
rain 1hr
in
rain 24hr
in
rain mn
in
humidity
%
barometer
mb
20260509023017 61 45 1.0 3.0 0.00 0.00 0.00 28 1021.0
20260509022017 62 45 1.0 3.0 0.00 0.00 0.00 28 1020.7
20260509021017 63 45 2.0 5.0 0.00 0.00 0.00 27 1019.3
20260509020017 64 68 1.0 4.0 0.00 0.00 0.00 26 1019.5
20260509015017 66 68 1.0 4.0 0.00 0.00 0.00 25 1019.7
20260509014037 67 68 1.0 4.0 0.00 0.00 0.00 24 1018.4
20260509013017 69 45 1.0 6.0 0.00 0.00 0.00 23 1018.6
20260509012037 71 68 1.0 6.0 0.00 0.00 0.00 22 1018.7
20260509011017 71 45 1.0 6.0 0.00 0.00 0.00 22 1018.1
20260509010017 71 90 1.0 7.0 0.00 0.00 0.00 22 1017.9
20260509005017 71 68 2.0 6.0 0.00 0.00 0.00 22 1017.8
20260509004016 73 45 2.0 7.0 0.00 0.00 0.00 21 1017.3
20260509003016 75 68 2.0 9.0 0.00 0.00 0.00 21 1017.7
20260509002037 75 0.0 4.0 0.00 0.00 0.00 20 1017.7
20260509001017 75 45 1.0 5.0 0.00 0.00 0.00 20 1018.1
20260509000037 75 68 2.0 7.0 0.00 0.00 0.00 21 1018.2
20260508235017 74 135 1.0 3.0 0.00 0.00 0.00 21 1018.2
20260508234016 74 0.0 1.0 0.00 0.00 0.00 20 1018.0
20260508233016 74 113 1.0 4.0 0.00 0.00 0.00 21 1018.1
20260508232016 75 45 2.0 7.0 0.00 0.00 0.00 20 1018.1
20260508231016 75 90 3.0 9.0 0.00 0.00 0.00 20 1017.7
20260508230017 76 68 3.0 12.0 0.00 0.00 0.00 20 1017.7
20260508225016 74 68 1.0 4.0 0.00 0.00 0.00 21 1017.2
20260508224016 74 68 2.0 6.0 0.00 0.00 0.00 21 1017.3
20260508223016 76 113 3.0 9.0 0.00 0.00 0.00 19 1018.0
20260508222016 77 270 2.0 8.0 0.00 0.00 0.00 20 1018.0
20260508221016 76 113 2.0 7.0 0.00 0.00 0.00 19 1018.2
20260508220016 76 113 3.0 11.0 0.00 0.00 0.00 20 1018.3
20260508215016 75 113 3.0 11.0 0.00 0.00 0.00 22 1018.3
20260508214016 73 90 2.0 6.0 0.00 0.00 0.00 22 1018.1
20260508213016 73 68 1.0 4.0 0.00 0.00 0.00 23 1018.2
20260508212056 74 90 2.0 6.0 0.00 0.00 0.00 22 1018.2
20260508211016 74 135 1.0 6.0 0.00 0.00 0.00 21 1018.8
20260508210016 75 135 1.0 7.0 0.00 0.00 0.00 21 1019.2
20260508205016 78 180 3.0 10.0 0.00 0.00 0.00 20 1019.8
20260508204016 76 270 3.0 11.0 0.00 0.00 0.00 21 1019.3
20260508203016 75 158 2.0 9.0 0.00 0.00 0.00 20 1019.4
20260508202036 77 180 2.0 5.0 0.00 0.00 0.00 20 1020.2
20260508201016 77 135 2.0 10.0 0.00 0.00 0.00 22 1020.5
20260508200016 75 158 2.0 7.0 0.00 0.00 0.00 22 1020.1
20260508195016 77 180 3.0 7.0 0.00 0.00 0.00 21 1020.4
20260508194016 74 90 4.0 12.0 0.00 0.00 0.00 20 1020.1
20260508193016 73 113 5.0 17.0 0.00 0.00 0.00 21 1019.7
20260508192016 75 113 3.0 9.0 0.00 0.00 0.00 19 1020.2
20260508191036 74 203 2.0 6.0 0.00 0.00 0.00 19 1020.1
20260508190016 73 90 2.0 9.0 0.00 0.00 0.00 19 1020.3
20260508185016 73 45 5.0 14.0 0.00 0.00 0.00 20 1020.5
20260508184016 73 45 2.0 9.0 0.00 0.00 0.00 20 1020.6
20260508183016 73 68 4.0 13.0 0.00 0.00 0.00 20 1020.9
20260508182016 73 45 4.0 12.0 0.00 0.00 0.00 21 1021.0
20260508181036 73 90 3.0 11.0 0.00 0.00 0.00 18 1022.0
20260508180016 74 45 3.0 10.0 0.00 0.00 0.00 18 1022.7
20260508175015 73 90 2.0 9.0 0.00 0.00 0.00 18 1022.4
20260508174035 72 45 3.0 12.0 0.00 0.00 0.00 18 1022.0
20260508173016 72 315 3.0 10.0 0.00 0.00 0.00 18 1022.0
20260508172015 72 338 3.0 10.0 0.00 0.00 0.00 18 1022.1
20260508171015 72 113 2.0 9.0 0.00 0.00 0.00 18 1023.3
20260508170038 71 90 3.0 7.0 0.00 0.00 0.00 18 1023.0
20260508165018 72 113 1.0 5.0 0.00 0.00 0.00 18 1023.5
20260508164017 71 113 2.0 8.0 0.00 0.00 0.00 18 1023.2
20260508163017 71 315 2.0 6.0 0.00 0.00 0.00 18 1023.3
20260508162017 72 90 2.0 9.0 0.00 0.00 0.00 19 1023.4
20260508161017 70 45 2.0 9.0 0.00 0.00 0.00 19 1024.1
20260508160017 70 135 1.0 4.0 0.00 0.00 0.00 19 1024.2
20260508155017 71 90 3.0 7.0 0.00 0.00 0.00 19 1024.1
20260508154018 69 90 3.0 9.0 0.00 0.00 0.00 20 1024.3
20260508153017 69 68 2.0 7.0 0.00 0.00 0.00 21 1024.2
20260508152017 68 113 1.0 6.0 0.00 0.00 0.00 20 1024.4
20260508151017 68 113 1.0 5.0 0.00 0.00 0.00 21 1025.0
20260508150017 69 45 1.0 5.0 0.00 0.00 0.00 22 1025.7
20260508145017 68 45 2.0 7.0 0.00 0.00 0.00 23 1025.3
20260508144017 65 0 1.0 5.0 0.00 0.00 0.00 25 1025.4
20260508143017 62 0.0 2.0 0.00 0.00 0.00 34 1024.6
20260508142017 59 0.0 2.0 0.00 0.00 0.00 38 1024.2
20260508141017 57 0.0 3.0 0.00 0.00 0.00 39 1024.2
20260508140017 55 270 1.0 4.0 0.00 0.00 0.00 41 1023.8
20260508135017 53 270 1.0 4.0 0.00 0.00 0.00 43 1022.8
20260508134017 51 270 1.0 4.0 0.00 0.00 0.00 44 1023.7
20260508133017 48 270 1.0 4.0 0.00 0.00 0.00 47 1023.1
20260508132017 45 270 1.0 3.0 0.00 0.00 0.00 50 1022.0
20260508131017 43 270 1.0 4.0 0.00 0.00 0.00 51 1021.9
20260508130017 42 270 1.0 3.0 0.00 0.00 0.00 52 1021.9
20260508125017 42 248 1.0 4.0 0.00 0.00 0.00 53 1021.8
20260508124017 39 248 1.0 4.0 0.00 0.00 0.00 57 1021.2
20260508123017 38 248 1.0 4.0 0.00 0.00 0.00 58 1021.1
20260508122017 37 248 2.0 4.0 0.00 0.00 0.00 59 1020.7
20260508121017 37 248 1.0 4.0 0.00 0.00 0.00 60 1021.2
20260508120037 38 248 2.0 5.0 0.00 0.00 0.00 58 1021.6
20260508115017 41 248 1.0 4.0 0.00 0.00 0.00 53 1022.1
20260508114017 41 248 1.0 4.0 0.00 0.00 0.00 53 1022.3
20260508113017 40 0.0 4.0 0.00 0.00 0.00 54 1021.9
20260508112037 40 248 1.0 5.0 0.00 0.00 0.00 55 1021.9
20260508111017 38 203 1.0 3.0 0.00 0.00 0.00 59 1021.7
20260508110017 37 203 2.0 4.0 0.00 0.00 0.00 60 1021.7
20260508105017 37 180 1.0 4.0 0.00 0.00 0.00 59 1021.6
20260508104016 37 0.0 3.0 0.00 0.00 0.00 59 1021.8
20260508103016 37 180 1.0 4.0 0.00 0.00 0.00 59 1021.6
20260508102016 38 0.0 2.0 0.00 0.00 0.00 58 1021.6
20260508101016 37 0.0 0.0 0.00 0.00 0.00 59 1021.6
20260508100016 37 0.0 0.0 0.00 0.00 0.00 59 1021.6
20260508095016 37 0.0 0.0 0.00 0.00 0.00 58 1021.8
20260508094016 38 0.0 0.0 0.00 0.00 0.00 58 1021.9
20260508093016 38 0.0 0.0 0.00 0.00 0.00 58 1021.9
20260508092017 38 0.0 0.0 0.00 0.00 0.00 58 1021.4
20260508091017 38 0.0 2.0 0.00 0.00 0.00 58 1021.4
20260508090016 38 248 2.0 5.0 0.00 0.00 0.00 57 1021.5
20260508085016 39 203 2.0 5.0 0.00 0.00 0.00 57 1022.1
20260508084016 39 203 2.0 5.0 0.00 0.00 0.00 55 1022.0
20260508083016 39 203 1.0 4.0 0.00 0.00 0.00 55 1021.9
20260508082056 39 203 1.0 5.0 0.00 0.00 0.00 56 1022.0
20260508081016 39 203 1.0 6.0 0.00 0.00 0.00 56 1022.1
20260508080036 39 203 1.0 4.0 0.00 0.00 0.00 55 1022.0
20260508075016 40 0.0 3.0 0.00 0.00 0.00 54 1022.3
20260508074016 40 203 2.0 5.0 0.00 0.00 0.00 55 1022.5
20260508073016 40 225 1.0 3.0 0.00 0.00 0.00 55 1022.5
20260508072036 40 225 2.0 4.0 0.00 0.00 0.00 55 1022.6
20260508071016 41 225 1.0 4.0 0.00 0.00 0.00 53 1022.9
20260508070016 42 248 1.0 6.0 0.00 0.00 0.00 51 1022.8
20260508065016 42 225 1.0 6.0 0.00 0.00 0.00 52 1022.9
20260508064016 42 203 1.0 3.0 0.00 0.00 0.00 51 1023.0
20260508063036 42 203 1.0 3.0 0.00 0.00 0.00 52 1022.6
20260508062036 42 203 1.0 4.0 0.00 0.00 0.00 51 1023.0
20260508061016 42 203 2.0 4.0 0.00 0.00 0.00 51 1022.6
20260508060016 43 203 2.0 5.0 0.00 0.00 0.00 49 1022.7
20260508055015 46 248 2.0 7.0 0.00 0.00 0.00 44 1023.4
20260508054017 47 248 4.0 9.0 0.00 0.00 0.00 43 1023.2
20260508053057 47 270 2.0 7.0 0.00 0.00 0.00 44 1023.1
20260508052018 45 270 2.0 9.0 0.00 0.00 0.00 46 1022.7
20260508051017 45 270 1.0 4.0 0.00 0.00 0.00 46 1022.2
20260508050017 47 270 2.0 7.0 0.00 0.00 0.00 44 1022.8
20260508045017 48 270 3.0 6.0 0.00 0.00 0.00 44 1023.2
20260508044017 48 270 2.0 6.0 0.00 0.00 0.00 43 1022.6
20260508043017 46 270 1.0 6.0 0.00 0.00 0.00 44 1022.3
20260508042017 48 0.0 3.0 0.00 0.00 0.00 41 1022.8
20260508041017 50 0.0 3.0 0.00 0.00 0.00 37 1022.8
20260508040037 50 0.0 1.0 0.00 0.00 0.00 36 1022.7
20260508035018 51 0.0 0.0 0.00 0.00 0.00 35 1023.1
20260508034017 52 0.0 1.0 0.00 0.00 0.00 34 1022.3
20260508033017 53 0.0 1.0 0.00 0.00 0.00 34 1022.2
20260508032017 52 0.0 3.0 0.00 0.00 0.00 34 1022.2
20260508031017 51 0.0 2.0 0.00 0.00 0.00 34 1020.7
20260508030017 53 0.0 1.0 0.00 0.00 0.00 33 1021.2
20260508025017 55 0.0 0.0 0.00 0.00 0.00 31 1021.7
20260508024017 56 0.0 0.0 0.00 0.00 0.00 29 1021.3